Waarnemingen

Advertentie
Mijn weer
Hyeres, Frankrijk (7667): temperatuur & dauwpunt: 15.01.2017 11:00:00 - 21.01.2017 11:00:00 (CET)Hyeres, Frankrijk (7667): temperatuur 5cm: 15.01.2017 11:00:00 - 21.01.2017 11:00:00 (CET)Hyeres, Frankrijk (7667): windsnelheid & windstoten: 15.01.2017 11:00:00 - 21.01.2017 11:00:00 (CET)Hyeres, Frankrijk (7667): windrichting: 15.01.2017 11:00:00 - 21.01.2017 11:00:00 (CET)Hyeres, Frankrijk (7667): luchtdruk: 15.01.2017 11:00:00 - 21.01.2017 11:00:00 (CET)Hyeres, Frankrijk (7667): zicht: 15.01.2017 11:00:00 - 21.01.2017 11:00:00 (CET)Hyeres, Frankrijk (7667): neerslag: 15.01.2017 11:00:00 - 21.01.2017 11:00:00 (CET)
Datum & Tijd tt [°C] td [°C] tt 5cm [°C] ff [km/u] ff [kn] fx [km/u] fx [kn] dd ppp [hPa] vv [km] rr [mm]
21.01.2017 11:00:00 12,4 -0,8 12,0 37 20 64 34 ONO 1022,3 60 0,0
21.01.2017 10:00:00 12,3 -0,3 10,9 39 21 56 30 ONO 1022,7 60 0,0
21.01.2017 09:00:00 11,9 0,3 10,0 35 19 62 33 ONO 1022,4 56 0,0
21.01.2017 08:00:00 11,7 -0,2 9,6 35 19 59 32 ONO 1022,3 60 0,0
21.01.2017 07:00:00 11,4 -0,4 9,4 32 17 52 28 ONO 1022,5 60 0,0
21.01.2017 06:00:00 11,0 -0,8 9,5 29 16 53 29 ONO 1022,6 60 0,0
21.01.2017 05:00:00 11,3 -0,2 9,4 37 20 58 31 ONO 1023,2 60 0,0
21.01.2017 04:00:00 10,9 -0,6 6,9 25 14 37 20 ONO 1023,6 60 0,0
21.01.2017 03:00:00 10,3 -1,8 6,8 21 12 38 20 NO 1023,9 60 0,0
21.01.2017 02:00:00 9,2 -0,7 6,2 17 9 29 16 NNO 1024,2 60 0,0
21.01.2017 01:00:00 9,7 -0,2 7,8 16 9 48 26 NNO 1024,5 10 0,0
21.01.2017 00:00:00 11,2 2,0 9,6 35 19 59 32 ONO 1025,0 51 0,0
20.01.2017 23:00:00 11,3 2,1 9,9 31 17 53 29 ONO 1025,3 53 0,0
20.01.2017 22:00:00 11,4 0,8 9,9 34 18 58 31 ONO 1025,3 57 0,0
20.01.2017 21:00:00 11,1 1,9 9,1 26 14 46 25 ONO 1025,4 51 0,0
20.01.2017 20:00:00 10,6 2,2 8,2 28 15 46 25 O 1025,6 40 0,0
20.01.2017 19:00:00 9,5 1,1 8,2 14 8 36 19 NNO 1025,6 40 0,0
20.01.2017 18:00:00 9,6 2,0 8,5 19 10 46 25 NO 1025,7 38 0,0
20.01.2017 17:00:00 9,9 2,5 7,9 28 15 52 28 NO 1025,5 35 0,0
20.01.2017 16:00:00 10,3 2,9 8,6 34 18 59 32 ONO 1025,8 35 0,0
20.01.2017 15:00:00 10,5 2,6 10,1 36 19 59 32 O 1025,7 36 0,0
20.01.2017 14:00:00 10,8 2,1 10,7 37 20 57 31 ONO 1025,9 20 0,0
20.01.2017 13:00:00 11,3 1,8 - 39 21 59 32 O 1026,5 60 -
20.01.2017 12:00:00 11,6 2,3 12,6 37 20 65 35 O 1027,1 20 0,0
20.01.2017 11:00:00 11,3 1,5 11,7 38 20 58 32 O 1027,4 19 0,0
20.01.2017 10:00:00 10,8 1,3 9,6 40 21 59 32 ONO 1026,9 60 0,0
20.01.2017 09:00:00 10,3 1,4 8,4 38 21 59 32 ONO 1026,6 47 0,0
20.01.2017 08:00:00 9,9 -0,1 8,2 32 18 61 33 O 1026,4 48 0,0
20.01.2017 07:00:00 9,8 0,9 8,3 38 20 61 33 ONO 1026,0 46 0,0
20.01.2017 06:00:00 10,0 0,8 8,5 37 20 60 32 ONO 1025,6 45 0,0
20.01.2017 05:00:00 10,2 -1,2 8,6 41 22 64 34 O 1025,7 59 0,0
20.01.2017 04:00:00 10,1 -1,6 8,4 42 23 64 34 O 1026,1 57 0,0
20.01.2017 03:00:00 10,0 0,0 8,4 37 20 57 31 O 1026,4 57 0,0
20.01.2017 02:00:00 9,9 0,2 8,5 35 19 54 29 O 1026,1 49 0,0
20.01.2017 01:00:00 10,0 0,6 8,5 32 17 52 28 O 1026,4 47 0,0
20.01.2017 00:00:00 10,0 0,3 8,4 29 16 53 29 ONO 1026,6 51 0,0
19.01.2017 23:00:00 10,1 0,4 8,4 27 15 52 28 ONO 1026,7 46 0,0
19.01.2017 22:00:00 10,5 1,3 - 29 16 54 29 O 1026,5 40 -
19.01.2017 21:00:00 10,6 0,9 9,5 35 19 53 29 O 1026,2 46 0,0
19.01.2017 20:00:00 10,8 0,8 - 31 17 52 28 O 1025,8 50 0,0
19.01.2017 19:00:00 10,4 -0,7 8,8 21 12 36 20 ONO 1025,5 58 0,0
19.01.2017 18:00:00 10,6 0,6 9,1 18 10 34 18 ONO 1024,9 58 0,0
19.01.2017 17:00:00 10,7 0,1 9,7 18 10 40 21 NO 1024,6 56 0,0
19.01.2017 16:00:00 11,1 1,3 10,6 29 16 49 27 ONO 1024,5 56 0,0
19.01.2017 15:00:00 11,5 0,6 11,5 31 17 48 26 O 1024,4 60 0,0
19.01.2017 14:00:00 11,4 0,2 10,7 32 17 48 26 O 1024,6 60 0,0
19.01.2017 13:00:00 11,0 0,7 - 31 17 52 28 O 1025,0 50 -
19.01.2017 12:00:00 12,0 0,1 13,0 29 16 48 26 ONO 1025,1 50 0,0
19.01.2017 11:00:00 11,4 -0,8 11,6 26 14 42 23 NO 1025,1 52 0,0
19.01.2017 10:00:00 7,9 -2,2 1,0 12 7 33 18 N 1025,0 35 0,0
19.01.2017 09:00:00 1,7 -4,8 -2,9 10 6 16 8 N 1024,4 23 0,0
19.01.2017 08:00:00 -1,2 -5,8 -3,1 8 4 16 9 NNO 1024,0 25 0,0
19.01.2017 07:00:00 2,3 -6,3 -1,4 11 6 19 10 NNW 1023,2 43 0,0
19.01.2017 06:00:00 2,1 -5,8 -0,6 15 8 19 11 NNW 1022,7 38 0,0
19.01.2017 05:00:00 1,6 -5,8 -1,3 13 7 18 10 NNW 1022,6 36 0,0
19.01.2017 04:00:00 1,7 -5,9 -2,0 8 5 16 9 N 1022,3 32 0,0
19.01.2017 03:00:00 1,8 -5,6 -1,6 9 5 19 10 N 1022,2 30 0,0
19.01.2017 02:00:00 2,0 -5,4 -2,6 13 7 16 9 NNW 1021,7 27 0,0
19.01.2017 01:00:00 0,7 -5,5 -1,9 7 4 16 9 N 1021,7 25 0,0
19.01.2017 00:00:00 3,3 -5,6 0,8 13 7 19 11 NW 1021,5 20 0,0
18.01.2017 23:00:00 2,5 -4,9 -1,0 12 7 18 10 NNW 1021,4 32 0,0
18.01.2017 22:00:00 2,8 -5,1 0,9 13 7 20 11 NNW 1020,9 29 0,0
18.01.2017 21:00:00 3,9 -4,8 -0,6 14 7 21 11 NW 1020,3 35 0,0
18.01.2017 20:00:00 2,3 -3,8 -1,1 11 6 14 8 NW 1020,3 15 0,0
18.01.2017 19:00:00 4,4 -3,9 - 5 3 18 10 N 1020,1 16 -
18.01.2017 18:00:00 5,4 -2,9 0,8 10 6 12 7 NW 1019,6 19 0,0
18.01.2017 17:00:00 9,7 -4,0 6,6 5 3 14 8 ZW 1019,2 44 0,0
18.01.2017 16:00:00 11,0 -5,1 10,5 10 5 15 8 ZW 1018,8 60 0,0
18.01.2017 15:00:00 11,5 -5,1 11,9 10 6 15 8 ZW 1018,8 55 0,0
18.01.2017 14:00:00 12,5 -8,7 13,2 4 2 11 6 WNW 1018,5 20 0,0
18.01.2017 13:00:00 10,9 -6,9 11,5 9 5 19 11 NNW 1018,6 58 0,0
18.01.2017 12:00:00 9,4 -7,8 10,2 8 4 25 13 NW 1019,0 20 0,0
18.01.2017 11:00:00 7,7 -7,2 7,4 11 6 21 12 NNW 1019,2 46 0,0
18.01.2017 10:00:00 5,8 -8,1 2,9 12 6 19 10 NNW 1018,6 37 0,0
18.01.2017 09:00:00 3,8 -8,3 1,3 13 7 30 16 NW 1018,2 60 0,0
18.01.2017 08:00:00 3,9 -10,2 1,6 16 9 24 13 NW 1017,7 60 0,0
18.01.2017 07:00:00 3,5 -9,9 0,8 18 10 27 14 NW 1017,3 60 0,0
18.01.2017 06:00:00 2,4 -9,9 0,3 16 8 23 12 NW 1016,9 60 0,0
18.01.2017 05:00:00 2,9 -10,1 0,7 13 7 24 13 NNW 1016,7 60 0,0
18.01.2017 04:00:00 3,4 -9,9 1,6 17 9 27 15 NNW 1016,5 60 0,0
18.01.2017 03:00:00 3,4 -9,6 0,8 19 10 26 14 NW 1016,5 60 0,0
18.01.2017 02:00:00 2,8 -9,8 0,8 17 9 27 15 NNW 1016,5 58 0,0
18.01.2017 01:00:00 3,5 -9,5 0,7 19 11 27 15 NW 1016,6 54 0,0
18.01.2017 00:00:00 2,9 -9,1 0,8 16 9 28 15 NW 1016,6 50 0,0
17.01.2017 23:00:00 3,6 -8,8 1,3 14 7 22 12 NW 1016,5 50 0,0
17.01.2017 22:00:00 4,1 -8,6 0,4 16 9 30 16 NW 1016,2 43 0,0
17.01.2017 21:00:00 2,7 -8,4 0,5 16 8 21 11 NNW 1016,0 35 0,0
17.01.2017 20:00:00 2,9 -8,5 -0,1 12 6 23 12 NNW 1015,6 20 0,0
17.01.2017 19:00:00 1,3 -7,0 -3,5 11 6 37 20 NW 1015,1 19 0,0
17.01.2017 18:00:00 1,8 -6,1 -3,5 7 4 17 9 NNW 1014,8 12 0,0
17.01.2017 17:00:00 5,1 -8,4 -0,8 0 0 9 5 N 1014,3 20 0,0
17.01.2017 16:00:00 7,3 -8,3 5,8 6 3 18 10 W 1013,9 60 0,0
17.01.2017 15:00:00 9,0 -13,4 9,4 8 5 13 7 WZW 1013,6 59 0,0
17.01.2017 14:00:00 8,6 -13,1 7,6 9 5 16 9 NW 1013,7 60 0,0
17.01.2017 13:00:00 6,7 -12,5 6,9 11 6 22 12 WNW 1014,0 58 0,0
17.01.2017 12:00:00 6,6 -12,1 7,2 7 4 21 12 NW 1014,3 59 0,0
17.01.2017 11:00:00 5,7 -11,9 6,7 13 7 28 15 NW 1014,3 60 0,0
17.01.2017 10:00:00 3,4 -11,8 0,3 15 8 42 23 NW 1014,1 60 0,0
17.01.2017 09:00:00 1,1 -12,3 -2,0 19 10 27 15 NW 1013,6 52 0,0
17.01.2017 08:00:00 -0,2 -12,8 -2,0 16 9 26 14 NNW 1013,2 48 0,0
17.01.2017 07:00:00 0,3 -13,1 -2,2 18 10 25 13 NNW 1012,9 60 0,0
17.01.2017 06:00:00 -0,6 -12,3 -3,4 15 8 19 10 NNW 1012,4 10 0,0
17.01.2017 05:00:00 -0,2 -12,2 -3,2 9 5 24 13 N 1012,5 60 0,0
17.01.2017 04:00:00 0,4 -12,0 -2,0 9 5 25 14 NW 1012,5 10 0,0
17.01.2017 03:00:00 1,1 -12,0 -0,7 19 10 34 18 N 1012,5 60 0,0
17.01.2017 02:00:00 1,4 -11,4 -0,9 24 13 36 19 NNW 1012,2 59 0,0
17.01.2017 01:00:00 1,5 -11,3 -1,0 19 10 31 17 NNW 1012,5 60 0,0
17.01.2017 00:00:00 1,5 -10,4 -0,5 15 8 31 17 N 1012,7 60 0,0
16.01.2017 23:00:00 3,0 -10,0 1,3 19 11 32 17 NNW 1012,8 60 0,0
16.01.2017 22:00:00 3,1 -8,9 1,4 16 9 28 15 NNW 1012,6 60 0,0
16.01.2017 21:00:00 3,1 -8,6 1,6 15 8 27 14 NW 1012,6 60 0,0
16.01.2017 20:00:00 4,4 -8,4 3,0 13 7 31 17 NNW 1012,1 60 0,0
16.01.2017 19:00:00 5,4 -3,4 -0,9 10 6 29 16 NNO 1011,7 51 0,0
16.01.2017 18:00:00 4,0 -4,5 0,5 4 2 21 11 O 1011,4 60 0,0
16.01.2017 17:00:00 6,7 -3,8 5,7 14 8 27 15 WZW 1011,6 60 0,0
16.01.2017 16:00:00 7,3 -2,2 5,6 14 8 25 14 W 1011,9 50 0,0
16.01.2017 15:00:00 7,9 -7,0 8,8 10 5 21 11 WNW 1012,2 60 0,0
16.01.2017 14:00:00 8,1 -7,2 7,6 10 5 17 9 NW 1012,4 20 0,0
16.01.2017 13:00:00 6,5 -7,2 6,3 12 6 17 9 WNW 1013,1 59 0,0
16.01.2017 12:00:00 5,5 -8,1 4,6 14 8 26 14 NW 1013,6 59 0,0
16.01.2017 11:00:00 4,0 -8,1 2,8 16 9 28 15 NW 1013,8 10 0,0
16.01.2017 10:00:00 2,5 -9,1 -0,6 16 8 29 16 NW 1013,9 57 0,0
16.01.2017 09:00:00 0,7 -10,2 -1,5 20 11 32 17 NNW 1013,8 59 0,0
16.01.2017 08:00:00 0,4 -10,7 -1,5 18 10 29 16 NW 1013,7 21 0,0
16.01.2017 07:00:00 1,4 -10,8 -0,8 21 11 28 15 NNW 1013,8 60 0,0
16.01.2017 06:00:00 1,3 -10,2 -1,4 19 10 27 14 NNW 1013,9 60 0,0
16.01.2017 05:00:00 1,2 -10,3 -1,1 14 8 28 15 NNW 1014,4 60 0,0
16.01.2017 04:00:00 2,5 -10,7 0,4 20 11 31 17 NNW 1014,7 60 0,0
16.01.2017 03:00:00 2,7 -10,9 0,0 17 9 27 14 NNW 1015,4 60 0,0
16.01.2017 02:00:00 2,9 -11,1 -0,3 17 9 29 16 NNW 1015,6 60 0,0
16.01.2017 01:00:00 2,2 -10,4 -0,8 13 7 23 12 NW 1016,0 60 0,0
16.01.2017 00:00:00 3,0 -10,0 -0,5 15 8 23 13 NNW 1016,4 60 0,0
15.01.2017 23:00:00 2,8 -9,8 0,3 14 8 30 16 NNW 1016,3 60 0,0
15.01.2017 22:00:00 3,7 -10,4 1,1 19 11 31 17 NNW 1016,3 60 0,0
15.01.2017 21:00:00 4,5 -10,8 1,5 11 6 47 26 NW 1016,4 60 0,0
15.01.2017 20:00:00 5,7 -11,0 3,4 20 11 43 23 NNW 1016,4 60 0,0
15.01.2017 19:00:00 6,0 -11,2 2,3 16 9 29 16 NNW 1016,0 60 0,0
15.01.2017 18:00:00 6,9 -10,8 4,1 18 10 32 18 NNW 1015,4 60 0,0
15.01.2017 17:00:00 8,6 -10,4 8,6 16 9 39 21 N 1015,2 60 0,0
15.01.2017 16:00:00 10,3 -10,5 12,1 17 9 36 19 NNW 1014,8 60 0,0
15.01.2017 15:00:00 10,7 -10,8 13,2 22 12 33 18 NNW 1014,6 60 0,0
15.01.2017 14:00:00 10,8 -11,3 13,2 22 12 39 21 NNW 1014,5 47 0,0
15.01.2017 13:00:00 10,0 -9,7 11,8 24 13 46 25 NNW 1014,8 44 0,0
15.01.2017 12:00:00 8,6 -9,4 10,5 31 17 48 26 N 1015,0 46 0,0
15.01.2017 11:00:00 7,5 -7,0 9,9 30 16 44 24 NNW 1014,7 51 0,0

tt = temperatuur
td = dauwpunt
tt 5cm = temperatuur 5cm
ff = windsnelheid
fx = windstoten
dd = windrichting
ppp = luchtdruk
vv = zicht
rr = neerslag

Weerstations in de omgeving